This is the latest recevied weather packets stored in our database for station/object KR4DFQ. If no packets are shown the sender has not sent any weather packets the latest 10 day(s).
| Time | Temp. | Humidity | Pressure | Rain* | Wind** | Luminosity | Snow |
|---|---|---|---|---|---|---|---|
| 1787767210 | 32.22° C | 62% | 1017.6 hPa | 0 mm | - | 119 W/m² | - |
| 1787766909 | 32.22° C | 65% | 1017.5 hPa | 0 mm | - | 94 W/m² | - |
| 1787766603 | 32.78° C | 62% | 1017.5 hPa | 0 mm | - | 87 W/m² | - |
| 1787766302 | 33.33° C | 60% | 1017.2 hPa | 0 mm | - | 115 W/m² | - |
| 1787765997 | 33.89° C | 60% | 1017.6 hPa | 0 mm | - | 1013 W/m² | - |
| 1787765694 | 33.89° C | 64% | 1017.2 hPa | 0 mm | - | 1037 W/m² | - |
| 1787765389 | 33.89° C | 61% | 1017.1 hPa | 0 mm | - | 1013 W/m² | - |
| 1787765089 | 34.44° C | 60% | 1017.3 hPa | 0 mm | - | 945 W/m² | - |
| 1787764783 | 35° C | 57% | 1017.4 hPa | 0 mm | - | 1008 W/m² | - |
| 1787764479 | 35° C | 56% | 1017.6 hPa | 0 mm | - | 1088 W/m² | - |
| 1787764174 | 34.44° C | 57% | 1017.7 hPa | 0 mm | - | 1157 W/m² | - |
| 1787763870 | 34.44° C | 58% | 1017.8 hPa | 0 mm | - | 1039 W/m² | - |
| 1787763565 | 33.89° C | 58% | 1017.7 hPa | 0 mm | - | 713 W/m² | - |
| 1787763261 | 33.89° C | 55% | 1017.9 hPa | 0 mm | - | 828 W/m² | - |
| 1787762960 | 33.89° C | 58% | 1017.9 hPa | 0 mm | - | 936 W/m² | - |
| 1787762660 | 34.44° C | 56% | 1017.9 hPa | 0 mm | - | 638 W/m² | - |
| 1787762357 | 33.89° C | 56% | 1017.8 hPa | 0 mm | - | 860 W/m² | - |
| 1787762057 | 33.89° C | 56% | 1017.9 hPa | 0 mm | - | 869 W/m² | - |
| 1787761752 | 33.89° C | 55% | 1017.9 hPa | 0 mm | - | 838 W/m² | - |
| 1787761447 | 33.89° C | 56% | 1018.2 hPa | 0 mm | - | 556 W/m² | - |
| 1787761141 | 34.44° C | 55% | 1017.9 hPa | 0 mm | - | 568 W/m² | - |
| 1787760841 | 35° C | 53% | 1018.1 hPa | 0 mm | - | 586 W/m² | - |
| 1787760539 | 35° C | 53% | 1018.2 hPa | 0 mm | - | 873 W/m² | - |
| 1787760234 | 35° C | 55% | 1018.1 hPa | 0 mm | - | 1005 W/m² | - |
| 1787759930 | 34.44° C | 54% | 1018.3 hPa | 0 mm | - | 883 W/m² | - |
* Rain latest hour (hover to see other rain measurements)
** Current wind speed in m/s (hover to see current wind gust speed)